This demonstration page uses our WeatherBlox Daily Observations layout. Learn more.

Left ArrowRight Arrow

44.8408, -93.29828

Hourly Observations for October 14, 2021

Temp ( °F °C ) Dew Point ( °F °C ) Humidity (%) Winds ( mph kmh ) Pressure ( in mb ) Visibility ( mi km ) Precip ( " mm )
12:53 am 00:53 Clear 55 12.8 39 3.9 55 55 SW 14 22 29.61 1003 10 16 N/A
1:53 am 01:53 Mostly Clear 53 11.7 39 3.9 59 59 SW 16 26 29.63 1003 10 16 N/A
2:53 am 02:53 Cloudy 52 11.1 40 4.4 64 64 SW 20 31 29.66 1004 10 16 N/A
3:36 am 03:36 Cloudy 50 10 40 4.4 68 68 SW 21 33 29.69 1005 10 16 N/A
3:53 am 03:53 Cloudy 50 10 39 3.9 66 66 SW 22 35 29.68 1005 10 16 N/A
4:53 am 04:53 Cloudy 50 10 39 3.9 66 66 SW 15 24 29.70 1006 10 16 N/A
5:53 am 05:53 Cloudy 49 9.4 39 3.9 69 69 WSW 14 22 29.71 1006 10 16 N/A
6:53 am 06:53 Cloudy 48 8.9 40 4.4 74 74 WSW 13 20 29.73 1007 10 16 N/A
7:53 am 07:53 Cloudy 48 8.9 40 4.4 74 74 WSW 14 22 29.76 1008 10 16 N/A
8:53 am 08:53 Cloudy 49 9.4 39 3.9 69 69 WSW 12 19 29.79 1009 10 16 N/A
9:53 am 09:53 Cloudy 48 8.9 39 3.9 71 71 WSW 16 26 29.81 1009 10 16 N/A
10:53 am 10:53 Cloudy 48 8.9 38 3.3 68 68 W 15 24 29.83 1010 10 16 N/A
11:53 am 11:53 Cloudy 49 9.4 38 3.3 66 66 WSW 13 20 29.85 1011 10 16 N/A
12:53 pm 12:53 Cloudy 49 9.4 38 3.3 66 66 WSW 14 22 29.85 1011 10 16 N/A
1:53 pm 13:53 Cloudy 50 10 38 3.3 63 63 WSW 16 26 29.86 1011 10 16 N/A
2:39 pm 14:39 Mostly Cloudy 52 11.1 38 3.3 59 59 WSW 12 19 29.85 1011 10 16 N/A
2:53 pm 14:53 Mostly Cloudy 53 11.7 38 3.3 57 57 SW 17 28 29.85 1011 10 16 N/A
3:53 pm 15:53 Partly Cloudy 55 12.8 37 2.8 51 51 W 17 28 29.85 1011 10 16 N/A
4:53 pm 16:53 Partly Cloudy 56 13.3 38 3.3 51 51 W 10 17 29.85 1011 10 16 N/A
5:53 pm 17:53 Mostly Cloudy 54 12.2 38 3.3 55 55 W 12 19 29.87 1012 10 16 N/A
6:53 pm 18:53 Mostly Cloudy 53 11.7 38 3.3 57 57 W 7 11 29.89 1012 10 16 N/A
7:53 pm 19:53 Partly Cloudy 52 11.1 38 3.3 59 59 W 5 7 29.91 1013 10 16 N/A
8:53 pm 20:53 Partly Cloudy 50 10 38 3.3 63 63 WSW 5 7 29.91 1013 10 16 N/A
9:53 pm 21:53 Mostly Cloudy 49 9.4 39 3.9 69 69 W 5 7 29.92 1013 10 16 N/A
10:53 pm 22:53 Partly Cloudy 48 8.9 39 3.9 71 71 SW 5 7 29.94 1014 10 16 N/A
11:53 pm 23:53 Mostly Cloudy 47 8.3 38 3.3 71 71 SW 5 7 29.94 1014 10 16 N/A

Powered by AerisWeather